EW7526 Weather Reports


Display with metric or nautical units.
time (UTC)temp
F
wind
direction
speed
MPH
gust
MPH
rain 1hr
in
rain 24hr
in
rain mn
in
humidity
%
barometer
mb
20181017231159 75 124 3.0 6.0 0.00 0.00 0.00 32 1019.2
20181017230659 75 150 4.0 7.0 0.00 0.00 0.00 31 1019.2
20181017230159 75 145 2.0 7.0 0.00 0.00 0.00 31 1019.3
20181017225658 76 141 3.0 7.0 0.00 0.00 0.00 30 1019.2
20181017225158 76 132 2.0 8.0 0.00 0.00 0.00 30 1019.3
20181017224658 76 111 2.0 8.0 0.00 0.00 0.00 31 1019.3
20181017224159 76 100 3.0 6.0 0.00 0.00 0.00 30 1019.4
20181017223659 76 35 3.0 9.0 0.00 0.00 0.00 30 1019.3
20181017223158 76 52 3.0 7.0 0.00 0.00 0.00 30 1019.4
20181017222659 75 128 3.0 7.0 0.00 0.00 0.00 30 1019.5
20181017222159 76 29 3.0 6.0 0.00 0.00 0.00 31 1019.5
20181017221658 76 142 2.0 6.0 0.00 0.00 0.00 30 1019.6
20181017221158 75 123 3.0 9.0 0.00 0.00 0.00 30 1019.6
20181017220658 75 171 2.0 9.0 0.00 0.00 0.00 31 1019.7
20181017220159 76 112 3.0 8.0 0.00 0.00 0.00 30 1019.8
20181017215658 75 356 3.0 9.0 0.00 0.00 0.00 31 1019.8
20181017215159 75 113 4.0 12.0 0.00 0.00 0.00 32 1019.8
20181017214658 75 133 5.0 12.0 0.00 0.00 0.00 32 1019.7
20181017214158 75 141 3.0 8.0 0.00 0.00 0.00 32 1019.7
20181017213659 75 0 2.0 7.0 0.00 0.00 0.00 32 1019.8
20181017213158 75 125 3.0 7.0 0.00 0.00 0.00 32 1019.9
20181017212658 75 182 5.0 10.0 0.00 0.00 0.00 32 1020.0
20181017212158 75 64 3.0 10.0 0.00 0.00 0.00 32 1020.0
20181017211659 75 131 4.0 9.0 0.00 0.00 0.00 32 1020.0
20181017211158 75 144 5.0 8.0 0.00 0.00 0.00 32 1020.0
20181017210658 75 102 4.0 6.0 0.00 0.00 0.00 32 1020.1
20181017210159 75 110 5.0 8.0 0.00 0.00 0.00 32 1020.1
20181017205658 74 115 3.0 7.0 0.00 0.00 0.00 33 1020.3
20181017205158 75 159 5.0 6.0 0.00 0.00 0.00 32 1020.3
20181017204658 75 186 3.0 6.0 0.00 0.00 0.00 33 1020.3
20181017204158 75 130 3.0 7.0 0.00 0.00 0.00 33 1020.3
20181017203658 75 120 3.0 8.0 0.00 0.00 0.00 33 1020.4
20181017203157 75 114 6.0 8.0 0.00 0.00 0.00 32 1020.4
20181017202157 75 117 3.0 8.0 0.00 0.00 0.00 33 1020.6
20181017201658 74 116 2.0 5.0 0.00 0.00 0.00 33 1020.6
20181017201158 74 57 2.0 6.0 0.00 0.00 0.00 33 1020.6
20181017200659 74 146 5.0 9.0 0.00 0.00 0.00 33 1020.7
20181017200159 75 133 3.0 6.0 0.00 0.00 0.00 32 1020.8
20181017195659 75 130 3.0 7.0 0.00 0.00 0.00 33 1020.9
20181017195159 74 108 1.0 7.0 0.00 0.00 0.00 33 1021.0
20181017194659 74 112 2.0 7.0 0.00 0.00 0.00 33 1021.1
20181017194200 74 128 3.0 7.0 0.00 0.00 0.00 33 1021.1
20181017193659 74 109 3.0 7.0 0.00 0.00 0.00 33 1021.2
20181017193200 74 115 2.0 7.0 0.00 0.00 0.00 33 1021.3
20181017192659 74 127 3.0 8.0 0.00 0.00 0.00 34 1021.3
20181017192159 74 102 5.0 10.0 0.00 0.00 0.00 34 1021.3
20181017191659 74 149 3.0 9.0 0.00 0.00 0.00 33 1021.4
20181017191159 74 80 3.0 9.0 0.00 0.00 0.00 34 1021.5
20181017190659 74 133 3.0 6.0 0.00 0.00 0.00 34 1021.5
20181017190200 73 163 2.0 6.0 0.00 0.00 0.00 35 1021.6
20181017185700 73 72 3.0 5.0 0.00 0.00 0.00 35 1021.7
20181017185159 73 114 2.0 6.0 0.00 0.00 0.00 36 1021.8
20181017184700 73 115 3.0 6.0 0.00 0.00 0.00 36 1021.9
20181017184159 73 144 2.0 5.0 0.00 0.00 0.00 35 1022.0
20181017183701 72 138 3.0 7.0 0.00 0.00 0.00 36 1022.0
20181017183200 72 82 2.0 6.0 0.00 0.00 0.00 37 1022.0
20181017182659 71 73 2.0 6.0 0.00 0.00 0.00 37 1022.1
20181017182200 71 32 2.0 6.0 0.00 0.00 0.00 37 1022.2
20181017181700 71 42 2.0 3.0 0.00 0.00 0.00 37 1022.2
20181017181200 71 34 2.0 3.0 0.00 0.00 0.00 37 1022.3
20181017180700 70 136 2.0 5.0 0.00 0.00 0.00 38 1022.3
20181017180200 70 14 2.0 5.0 0.00 0.00 0.00 39 1022.3
20181017175700 70 13 3.0 6.0 0.00 0.00 0.00 38 1022.3
20181017175159 71 24 1.0 6.0 0.00 0.00 0.00 39 1022.4
20181017174700 70 52 2.0 3.0 0.00 0.00 0.00 39 1022.4
20181017174200 70 119 1.0 6.0 0.00 0.00 0.00 38 1022.4
20181017173700 69 69 2.0 3.0 0.00 0.00 0.00 39 1022.4
20181017173200 69 16 2.0 9.0 0.00 0.00 0.00 39 1022.5
20181017172700 69 56 2.0 9.0 0.00 0.00 0.00 39 1022.4
20181017172200 69 26 2.0 5.0 0.00 0.00 0.00 39 1022.5
20181017171700 69 65 2.0 6.0 0.00 0.00 0.00 40 1022.5
20181017171159 69 37 2.0 5.0 0.00 0.00 0.00 40 1022.5
20181017170700 68 105 1.0 3.0 0.00 0.00 0.00 41 1022.6
20181017170200 67 3 2.0 5.0 0.00 0.00 0.00 42 1022.7
20181017165700 67 24 2.0 3.0 0.00 0.00 0.00 42 1022.7
20181017165200 67 46 2.0 3.0 0.00 0.00 0.00 42 1022.8
20181017164659 66 117 3.0 10.0 0.00 0.00 0.00 43 1022.8
20181017164201 66 18 3.0 10.0 0.00 0.00 0.00 43 1022.8
20181017163700 66 29 2.0 7.0 0.00 0.00 0.00 44 1022.8
20181017163200 65 31 2.0 6.0 0.00 0.00 0.00 46 1022.9
20181017162700 65 358 3.0 7.0 0.00 0.00 0.00 47 1022.9
20181017162200 64 19 4.0 7.0 0.00 0.00 0.00 47 1022.9
20181017161700 64 26 3.0 6.0 0.00 0.00 0.00 48 1022.9
20181017161159 63 1 5.0 7.0 0.00 0.00 0.00 49 1022.9
20181017160700 63 355 5.0 8.0 0.00 0.00 0.00 50 1022.8
20181017160201 62 357 5.0 8.0 0.00 0.00 0.00 50 1022.9
20181017155659 62 11 7.0 12.0 0.00 0.00 0.00 50 1022.9
20181017155159 62 4 6.0 12.0 0.00 0.00 0.00 51 1022.9
20181017154659 61 6 6.0 9.0 0.00 0.00 0.00 51 1022.9
20181017154159 61 5 6.0 9.0 0.00 0.00 0.00 51 1022.9
20181017153659 61 17 7.0 12.0 0.00 0.00 0.00 52 1023.0
20181017153200 60 6 7.0 12.0 0.00 0.00 0.00 52 1022.9
20181017152659 60 10 6.0 12.0 0.00 0.00 0.00 53 1022.9
20181017152159 60 14 7.0 12.0 0.00 0.00 0.00 53 1022.9
20181017151659 59 8 6.0 10.0 0.00 0.00 0.00 54 1022.9
20181017151159 59 11 5.0 10.0 0.00 0.00 0.00 55 1022.8
20181017150700 58 7 5.0 8.0 0.00 0.00 0.00 57 1022.8
20181017150159 57 0 6.0 10.0 0.00 0.00 0.00 57 1022.7
20181017145659 57 358 6.0 9.0 0.00 0.00 0.00 57 1022.7
20181017145159 57 14 6.0 8.0 0.00 0.00 0.00 58 1022.6
20181017144700 57 7 5.0 10.0 0.00 0.00 0.00 58 1022.6
20181017144159 56 10 6.0 10.0 0.00 0.00 0.00 59 1022.6
20181017143659 56 20 6.0 8.0 0.00 0.00 0.00 59 1022.5
20181017143159 56 23 6.0 9.0 0.00 0.00 0.00 59 1022.5
20181017142659 56 0 7.0 13.0 0.00 0.00 0.00 59 1022.4
20181017142159 56 5 7.0 13.0 0.00 0.00 0.00 60 1022.3
20181017141659 55 8 6.0 10.0 0.00 0.00 0.00 60 1022.3
20181017141200 55 11 6.0 10.0 0.00 0.00 0.00 60 1022.3
20181017140659 55 9 6.0 9.0 0.00 0.00 0.00 60 1022.2
20181017140200 55 14 7.0 12.0 0.00 0.00 0.00 59 1022.1
20181017135701 55 10 7.0 13.0 0.00 0.00 0.00 60 1022.1
20181017135201 55 11 8.0 13.0 0.00 0.00 0.00 60 1022.1
20181017134700 55 5 6.0 12.0 0.00 0.00 0.00 60 1022.1
20181017134200 55 14 7.0 12.0 0.00 0.00 0.00 60 1022.1
20181017133701 55 18 6.0 12.0 0.00 0.00 0.00 60 1022.0
20181017133200 55 4 6.0 8.0 0.00 0.00 0.00 60 1021.9
20181017132657 55 9 6.0 9.0 0.00 0.00 0.00 60 1021.8
20181017132156 55 2 6.0 9.0 0.00 0.00 0.00 60 1021.8
20181017131156 55 17 6.0 12.0 0.00 0.00 0.00 60 1021.8
20181017130157 55 21 7.0 12.0 0.00 0.00 0.00 60 1021.8
20181017125157 55 4 7.0 9.0 0.00 0.00 0.00 60 1021.7
20181017124656 55 346 7.0 12.0 0.00 0.00 0.00 59 1021.7
20181017124156 55 21 6.0 12.0 0.00 0.00 0.00 60 1021.7
20181017123656 55 34 5.0 8.0 0.00 0.00 0.00 60 1021.7
20181017123156 55 21 7.0 9.0 0.00 0.00 0.00 60 1021.7
20181017122656 55 27 7.0 10.0 0.00 0.00 0.00 60 1021.7
20181017122155 55 0 9.0 13.0 0.00 0.00 0.00 60 1021.6
20181017121155 55 0 6.0 13.0 0.00 0.00 0.00 60 1021.6
20181017120655 55 350 10.0 12.0 0.00 0.00 0.00 60 1021.6
20181017115656 55 357 9.0 12.0 0.00 0.00 0.00 60 1021.6
20181017115155 55 10 6.0 10.0 0.00 0.00 0.00 60 1021.6
20181017114656 55 26 7.0 12.0 0.00 0.00 0.00 60 1021.5
20181017114155 55 14 6.0 12.0 0.00 0.00 0.00 61 1021.5
20181017113655 55 25 6.0 7.0 0.00 0.00 0.00 61 1021.5
20181017113155 55 8 6.0 7.0 0.00 0.00 0.00 61 1021.4
20181017112655 55 14 5.0 8.0 0.00 0.00 0.00 61 1021.4
20181017112155 55 13 5.0 8.0 0.00 0.00 0.00 61 1021.4
20181017111655 55 11 5.0 7.0 0.00 0.00 0.00 62 1021.3
20181017111155 55 7 4.0 8.0 0.00 0.00 0.00 62 1021.4
20181017110656 55 11 5.0 8.0 0.00 0.00 0.00 61 1021.3
20181017110156 55 15 5.0 5.0 0.00 0.00 0.00 60 1021.2
20181017105655 55 12 5.0 9.0 0.00 0.00 0.00 61 1021.2
20181017105155 55 2 5.0 9.0 0.00 0.00 0.00 62 1021.2
20181017104655 55 2 7.0 10.0 0.00 0.00 0.00 63 1021.2
20181017104156 55 9 5.0 10.0 0.00 0.00 0.00 63 1021.3
20181017103156 54 19 3.0 5.0 0.00 0.00 0.00 64 1021.4
20181017102655 55 14 3.0 3.0 0.00 0.00 0.00 64 1021.4
20181017102156 54 16 5.0 7.0 0.00 0.00 0.00 64 1021.4
20181017101656 54 13 6.0 7.0 0.00 0.00 0.00 64 1021.4
20181017101155 55 27 3.0 7.0 0.00 0.00 0.00 64 1021.4
20181017100156 55 12 3.0 7.0 0.00 0.00 0.00 64 1021.4
20181017095155 55 36 5.0 7.0 0.00 0.00 0.00 64 1021.4
20181017094655 55 15 3.0 7.0 0.00 0.00 0.00 64 1021.5
20181017094156 55 7 5.0 8.0 0.00 0.00 0.00 63 1021.5
20181017093656 55 26 6.0 8.0 0.00 0.00 0.00 63 1021.6
20181017093155 55 30 6.0 8.0 0.00 0.00 0.00 63 1021.7
20181017092655 55 2 5.0 8.0 0.00 0.00 0.00 63 1021.7
20181017092155 55 15 7.0 9.0 0.00 0.00 0.00 63 1021.8
20181017091656 56 19 5.0 9.0 0.00 0.00 0.00 63 1021.9
20181017091155 56 28 5.0 8.0 0.00 0.00 0.00 63 1021.9
20181017090656 56 7 3.0 6.0 0.00 0.00 0.00 63 1021.9
20181017090156 56 19 6.0 10.0 0.00 0.00 0.00 62 1021.8
20181017085656 56 9 6.0 8.0 0.00 0.00 0.00 62 1021.8
20181017085155 56 359 6.0 9.0 0.00 0.00 0.00 62 1021.8
20181017084656 56 356 5.0 9.0 0.00 0.00 0.00 63 1021.8
20181017084155 56 6 6.0 10.0 0.00 0.00 0.00 63 1021.9
20181017083656 56 20 6.0 7.0 0.00 0.00 0.00 63 1021.8
20181017083156 56 41 4.0 7.0 0.00 0.00 0.00 63 1021.8
20181017082655 56 326 3.0 5.0 0.00 0.00 0.00 62 1021.9
20181017082155 56 335 5.0 6.0 0.00 0.00 0.00 63 1021.8
20181017081155 56 22 6.0 8.0 0.00 0.00 0.00 62 1021.9
20181017080655 56 27 6.0 8.0 0.00 0.00 0.00 62 1021.9
20181017080158 56 352 4.0 8.0 0.00 0.00 0.00 62 1021.9
20181017075655 56 24 5.0 7.0 0.00 0.00 0.00 62 1022.0
20181017075155 56 15 4.0 6.0 0.00 0.00 0.00 62 1022.0
20181017074655 56 10 4.0 8.0 0.00 0.00 0.00 62 1021.9
20181017074155 56 17 5.0 8.0 0.00 0.00 0.00 63 1021.9
20181017073655 56 25 3.0 7.0 0.00 0.00 0.00 63 1021.9
20181017073156 56 20 1.0 3.0 0.00 0.00 0.00 64 1021.9
20181017072656 56 0 3.0 6.0 0.00 0.00 0.00 64 1021.9
20181017072155 56 0 2.0 6.0 0.00 0.00 0.00 65 1021.9
20181017071655 55 8 2.0 5.0 0.00 0.00 0.00 66 1021.9
20181017071158 55 236 0.0 3.0 0.00 0.00 0.00 67 1021.9
20181017070655 55 231 0.0 0.0 0.00 0.00 0.00 66 1021.8
20181017070156 55 26 0.0 0.0 0.00 0.00 0.00 66 1021.8
20181017065655 56 26 1.0 3.0 0.00 0.00 0.02 65 1021.8
20181017065155 56 10 2.0 3.0 0.00 0.00 0.02 65 1021.8
20181017064655 55 43 0.0 3.0 0.00 0.00 0.02 67 1021.8
20181017064155 55 41 0.0 0.0 0.00 0.00 0.02 67 1021.9
20181017063155 56 41 0.0 0.0 0.00 0.00 0.02 65 1021.8
20181017062654 56 41 0.0 0.0 0.00 0.00 0.02 65 1021.8
20181017062155 56 8 1.0 2.0 0.00 0.00 0.02 64 1021.8
20181017061656 56 23 5.0 6.0 0.00 0.00 0.02 64 1021.8
20181017060156 57 18 3.0 5.0 0.00 0.00 0.02 63 1021.7
20181017055655 57 20 3.0 5.0 0.00 0.00 0.02 63 1021.8
20181017055155 57 21 5.0 6.0 0.00 0.00 0.02 62 1021.8
20181017054655 57 27 4.0 6.0 0.00 0.00 0.02 63 1021.8
20181017054156 57 11 3.0 5.0 0.00 0.00 0.02 62 1021.9
20181017053655 57 16 3.0 5.0 0.00 0.00 0.02 62 1021.8
20181017053155 57 348 5.0 7.0 0.00 0.00 0.02 62 1021.8
20181017052655 57 17 5.0 7.0 0.00 0.00 0.02 62 1021.8
20181017052155 57 349 6.0 10.0 0.00 0.00 0.02 63 1021.8
20181017051655 57 17 6.0 10.0 0.00 0.00 0.02 63 1021.8
20181017050655 57 33 6.0 7.0 0.00 0.00 0.02 63 1021.8
20181017050155 57 12 6.0 8.0 0.00 0.00 0.02 63 1021.8
20181017045155 57 28 6.0 8.0 0.00 0.00 0.02 62 1021.8
20181017044654 57 15 6.0 6.0 0.00 0.00 0.02 63 1021.7
20181017044155 57 23 7.0 9.0 0.00 0.00 0.02 63 1021.8
20181017043155 57 14 6.0 9.0 0.00 0.00 0.02 63 1021.8
20181017042655 57 15 5.0 7.0 0.00 0.00 0.02 64 1021.8
20181017042155 57 0 5.0 9.0 0.00 0.00 0.02 64 1021.8
20181017041655 57 55 6.0 9.0 0.00 0.00 0.02 64 1021.8
20181017040155 57 327 7.0 8.0 0.00 0.00 0.02 64 1021.6
20181017035655 57 7 6.0 13.0 0.00 0.00 0.02 64 1021.6
20181017035154 56 6 6.0 13.0 0.00 0.00 0.02 64 1021.5
20181017034655 56 356 7.0 8.0 0.00 0.00 0.02 65 1021.5
20181017034155 56 2 7.0 9.0 0.00 0.00 0.02 65 1021.5
20181017033654 56 1 5.0 8.0 0.00 0.00 0.02 65 1021.5
20181017033154 56 15 8.0 12.0 0.00 0.00 0.02 66 1021.3
20181017032654 56 348 6.0 13.0 0.00 0.00 0.02 66 1021.3
20181017032154 56 20 9.0 13.0 0.00 0.00 0.02 66 1021.2
20181017031156 56 13 7.0 12.0 0.00 0.00 0.02 67 1021.2
20181017025654 57 83 9.0 12.0 0.00 0.00 0.02 66 1021.0
20181017025154 57 17 7.0 10.0 0.00 0.00 0.02 67 1021.0
20181017024654 57 26 6.0 7.0 0.00 0.00 0.02 67 1021.0
20181017024154 57 11 5.0 7.0 0.00 0.00 0.02 67 1021.0
20181017023655 57 352 3.0 6.0 0.00 0.00 0.02 67 1021.0
20181017023154 57 29 7.0 13.0 0.00 0.00 0.02 67 1020.9
20181017022655 57 18 8.0 13.0 0.00 0.00 0.02 67 1020.9
20181017022154 57 15 6.0 12.0 0.00 0.00 0.02 67 1020.9
20181017021654 57 17 7.0 12.0 0.00 0.00 0.02 67 1020.8
20181017021154 57 354 7.0 9.0 0.00 0.00 0.02 67 1020.8
20181017020655 57 23 5.0 12.0 0.00 0.00 0.02 67 1020.8
20181017015653 57 11 7.0 12.0 0.00 0.00 0.02 67 1020.6
20181017015154 57 30 7.0 10.0 0.00 0.00 0.02 66 1020.6
20181017014654 57 13 7.0 10.0 0.00 0.00 0.02 66 1020.5
20181017014155 57 0 7.0 10.0 0.00 0.00 0.02 66 1020.5
20181017013654 57 17 6.0 12.0 0.00 0.00 0.02 66 1020.6
20181017013154 57 12 8.0 12.0 0.00 0.00 0.02 65 1020.4
20181017012657 57 11 7.0 10.0 0.00 0.00 0.02 65 1020.4
20181017012200 58 21 7.0 12.0 0.00 0.00 0.02 65 1020.4
20181017011659 58 21 6.0 12.0 0.00 0.00 0.02 64 1020.4
20181017011159 58 352 7.0 12.0 0.00 0.00 0.02 64 1020.4
20181017010659 58 8 6.0 9.0 0.00 0.00 0.02 63 1020.4
20181017010200 58 15 7.0 12.0 0.00 0.00 0.02 63 1020.3
20181017005700 58 5 7.0 12.0 0.00 0.00 0.02 63 1020.2
20181017005200 58 14 6.0 12.0 0.00 0.00 0.02 62 1020.1
20181017004659 59 10 6.0 9.0 0.00 0.00 0.02 62 1020.1
20181017004200 59 5 6.0 12.0 0.00 0.00 0.02 61 1020.2
20181017003659 59 11 6.0 12.0 0.00 0.00 0.02 61 1020.1
20181017003159 60 13 6.0 9.0 0.00 0.00 0.02 60 1020.0
20181017002659 60 9 5.0 9.0 0.00 0.00 0.02 58 1020.0
20181017002159 60 354 5.0 9.0 0.00 0.00 0.02 58 1020.1
20181017001658 60 9 6.0 10.0 0.00 0.00 0.02 59 1020.1
20181017001159 60 4 6.0 10.0 0.00 0.00 0.02 59 1020.0
20181017000659 60 8 6.0 10.0 0.00 0.00 0.02 58 1020.1
20181017000159 60 9 7.0 12.0 0.00 0.00 0.02 57 1020.1
20181016235658 60 13 5.0 9.0 0.00 0.00 0.02 56 1020.1
20181016235159 60 10 6.0 10.0 0.00 0.00 0.02 56 1020.1
20181016234658 60 24 5.0 8.0 0.00 0.00 0.02 56 1020.1
20181016234157 60 10 5.0 8.0 0.00 0.00 0.02 55 1019.9
20181016233657 61 9 5.0 9.0 0.00 0.00 0.02 56 1019.9
20181016233157 61 353 2.0 8.0 0.00 0.00 0.02 55 1019.9
20181016232658 61 18 5.0 9.0 0.00 0.00 0.02 56 1019.9
20181016232157 61 9 6.0 12.0 0.00 0.00 0.02 54 1019.9
20181016231657 61 5 6.0 12.0 0.00 0.00 0.02 54 1020.0